Погода в Никитовке

Россия / Белгородская область     50°21′12″N   38°25′07″E
темп.,
°C
ветер,
м/с
пор.,
м/с
влажн.,
%
обл.,
%
осадки,
мм/ч
давл.,
гПа
погр.,
м
17 июня, чт
чт1700:00+18св35900 0.0 101382
03:00+17св4893100 0.0 1014150
06:00+18св5119371 0.0 1014341
09:00+22всв71076100 0.0 1015742
12:00+25всв8106784 0.0 10161288
15:00+26всв8106940 0.1 10161574
18:00+24св812775 0.3 1016900
21:00+21св81578100 0.4 1017762
18 июня, пт
пт1800:00+19всв7157387 0.0 1020608
03:00+17всв61479100 0.0 1020471
06:00+16всв816834 0.0 1020459
09:00+20в6107258 0.0 1022786
12:00+23всв810610 0.0 10221196
15:00+24всв78604 0.0 10221420
18:00+23всв697145 0.0 10221125
21:00+19всв6127936 0.0 1023412
19 июня, сб
сб1900:00+17всв6138417 0.0 1023387
03:00+15всв6138854 0.0 1023353
06:00+16всв61481100 0.0 1024389
09:00+19в7116711 0.0 1024525
12:00+23в89615 0.0 1023916
15:00+24в79600 0.0 10221077
18:00+23в69690 0.0 1022867
21:00+18всв412804 0.0 1023286
20 июня, вс
вс2000:00+16всв513785 0.0 1022252
03:00+16всв5137674 0.0 1022261
06:00+16в61478100 0.0 1022307
09:00+20в71265100 0.0 1022498
12:00+24в71056100 0.0 1021834
15:00+25в71060100 0.0 1019915
18:00+23в61268100 0.0 1019703
21:00+20всв497398 0.0 1019223
21 июня, пн
пн2100:00+20всв6156996 0.0 1018353
03:00+18в512712 0.0 1018263
06:00+17в498136 0.0 1018180
09:00+24в610614 0.0 1018360
12:00+27вюв7114945 0.0 1018870
15:00+29в6105356 0.0 10171233
18:00+25в4106788 0.0 1017271
21:00+21всв4118175 0.0 1017182